Home > Weather > Kitchener > Past weeks

Flag for Canada Weather for the Past 2 Weeks in Kitchener, Ontario, Canada

Now
39 °F

Overcast.


Feels Like: 32 °F
Forecast: 38 / 53 °F
Wind: 12 mph from East

Location: Waterloo Well

Current Time: Apr 29, 2016 at 7:17:22 AM

Latest Report: Apr 29, 2016 at 6:00 AM


Visibility: 9 mi

Pressure: 30.07 "Hg

Humidity: 56%

Dew Point: 25 °F

Location of KitchenerLocation

Historic Weather in Kitchener — Graph

°F

Kitchener Temperature Yesterday

Maximum temperature yesterday: 46 °F (at 5:00 PM)
Minimum temperature yesterday: 32 °F (at 4:00 AM)
Average temperature yesterday: 40 °F

High & Low Weather Summary for the Past Weeks

 TemperatureHumidityPressure
High77 °F (Apr 18, 2:00 PM)100% (Apr 18, 6:00 AM)30.49 "Hg (Apr 18, 6:00 AM)
Low25 °F (Apr 14, 6:00 AM)20% (Apr 17, 5:03 PM)29.71 "Hg (Apr 26, 4:00 AM)
Average48 °F59%30.16 "Hg
* Reported Apr 14 6:00 AM — Apr 29 6:00 AM, Kitchener, Weather by CustomWeather, © 2016

Note: Actual official high and low records may vary slightly from our data, if they occured in-between our weather recording intervals... More about our weather records

Advertising

Kitchener Weather History for the Previous 24 Hours

Scroll right to see more
 ConditionsComfort  
Time TempWeatherWind HumidityBarometerVisibility
6:00 AM
Fri, Apr 29
39 °FOvercast.12 mph56%30.07 "Hg9 mi
5:00 AM39 °FOvercast.10 mph56%30.06 "Hg9 mi
4:00 AM39 °FOvercast.10 mph61%30.06 "Hg9 mi
3:00 AM39 °FOvercast.12 mph61%30.06 "Hg9 mi
2:00 AM39 °FOvercast.8 mph61%30.08 "Hg9 mi
1:00 AM41 °FLight rain. Overcast.8 mph53%30.07 "Hg9 mi
12:00 AM41 °FOvercast.12 mph57%30.06 "Hg9 mi
11:00 PM
Thu, Apr 28
41 °FOvercast.8 mph57%30.07 "Hg9 mi
10:00 PM41 °FOvercast.7 mph53%30.06 "Hg9 mi
9:00 PM43 °FOvercast.12 mph53%30.05 "Hg9 mi
8:00 PM43 °FOvercast.10 mph49%30.06 "Hg9 mi
7:00 PM45 °FOvercast.10 mph46%30.06 "Hg9 mi
6:00 PM45 °FOvercast.12 mph46%30.06 "Hg9 mi
5:00 PM46 °FOvercast.15 mph40%30.04 "Hg9 mi
4:00 PM45 °FOvercast.13 mph42%30.03 "Hg9 mi
3:00 PM45 °FOvercast.18 mph37%30.04 "Hg9 mi
2:00 PM43 °FPartly sunny.16 mph42%30.05 "Hg9 mi
1:00 PM43 °FPartly sunny.14 mph42%30.07 "Hg9 mi
12:00 PM43 °FPartly sunny.16 mph42%30.07 "Hg9 mi
11:00 AM43 °FOvercast.14 mph39%30.08 "Hg9 mi
10:00 AM43 °FMostly cloudy.18 mph42%30.07 "Hg9 mi
9:00 AM43 °FPartly sunny.16 mph46%30.07 "Hg9 mi
8:00 AM37 °FPartly sunny.8 mph56%30.08 "Hg9 mi
7:00 AM34 °FPassing clouds.5 mph65%30.06 "Hg9 mi
Weather by CustomWeather, © 2016

See weather overviewHow to use our weather pages